Location: Moscow
(55.7500°N, 37.5830°E)
Time: 19:58:11
(UTC+03:00)

Vanguard 2 Rocket - Pass Details

Date: 01 December 2021
Orbit: 554 x 3325 km, 32.9° (Epoch: 20 January)

Event Time Altitude Azimuth Distance (km) Brightness Sun altitude
Rises 21:31:55 0° 237° (WSW) 4,357 10.6 -44.3°
Reaches altitude 10° 21:35:16 10° 222° (SW) 3,769 10.1 -44.7°
Enters shadow 21:36:20 13° 216° (SW) 3,643 9.9 -44.8°
